User: anonymous   Login
Location: Newark
(41.0400°S, 62.7845°W)
Time: 13:37:29
(UTC+00:00)
Language:

Explorer 7 - Orbit

View from above orbital plane
View from above orbital plane
View from above satellite
View from above satellite

Ground track
Ground track

The orbit data is extracted from the following two-line orbital elements,

1 00022U 59009A   21341.81678927  .00001019  00000-0  97154-4 0  9997
2 00022  50.2838  94.7918 0137762 156.6925 204.0349 14.95932993550938
Epoch (UTC): 07 December 2021 19:36:10
Eccentricity: 0.0137762
inclination: 50.2838°
perigee height: 483 km
apogee height: 675 km
right ascension of ascending node: 94.7918°
argument of perigee: 156.6925°
revolutions per day: 14.95932993
mean anomaly at epoch: 204.0349°
orbit number at epoch: 55093

The dashed part of the orbit path shows where the satellite is in the earth's shadow,  

DLR